Location: Newark
(49.8969°N, 3.3422°E)
Time: 21:01:18
(UTC+00:00)

A-11 Canister half - Pass Details

Date: 29 January 2020
Orbit: 1517 x 1683 km, 47.2° (Epoch: 26 February)

Event Time Altitude Azimuth Distance (km) Brightness Sun altitude
Rises 03:22:31 0° 283° (WNW) 4,687 - -38.7°
Reaches altitude 10° 03:25:37 10° 280° (W) 3,693 - -38.2°
Maximum altitude 03:34:35 57° 205° (SSW) 1,753 - -36.8°
Exits shadow 03:36:39 48° 164° (SSE) 1,910 9.3 -36.5°
Drops below altitude 10° 03:43:33 10° 131° (SE) 3,693 11.3 -35.5°
Sets 03:46:40 0° 127° (SE) 4,688 12.0 -35.0°
